NORSAT 3 (48272 NORAD) Tracking and Keplerian Element Data

This shows tracking and keplerian element data for the satellite.

Feedback or suggestion? Click here.




ElementValue
Catalog48272
NameNORSAT 3
Epoch Orbit798
Epoch Day172.86139839
Epoch Year2021
RAAN247.425
Inclination97.7844
Eccentricity7.12E-05
Argument of Perigee68.4818
Mean Anonmoly291.6531
Mean Motion14.86502623
Decay Rate-5.3E-07
L11 48272U 21034E 21172.86139839 -.00000053 00000-0 00000+0 0 9991
L22 48272 97.7844 247.4250 0000712 68.4818 291.6531 14.86502623 7981

Live tracking and technical data element details for NORSAT 3 (NORAD 48272). NORSAT 3 can be tracked NOW for your location showing map with azimuth and elevation plus other details from your city location.

Track the satellite on the map from your city or location and see movement details for azimuth, elevation, latitude, longitude, range, height, and movement on the map or in text.







IsCatalogInMostPopularTable: catalog: 48272, numindb: 20
Update: records affected: 1



GetName: 48272 NORSAT 3

Hit Count: updated at: Thu, 24 Jun 2021 02:07:15 GMT